Terminal Aerodrome Forecast
Issued by NWS

Home | Current Version | Previous Version | Text Only | Print | Product List | Glossary On
Versions: 1 2 3 4 5 6 7 8 9 10 11 12 13 14 15 16 17 18
000
FTUS45 KRIW 291538 AAA
TAFRKS
TAF AMD
KRKS 291538Z 2916/3012 06011KT P6SM VCSH SCT008 OVC012
      TEMPO 2916/2918 3SM -SN OVC009
     FM291900 05012KT P6SM VCSH SCT016 BKN035
     FM292300 07016KT P6SM VCSH SCT025 BKN040
     FM300300 08014KT P6SM SCT030 BKN050=

USA.gov is the U.S. government's official web portal to all federal, state and local government web resources and services.